Regional Weather Roundup
Issued by NWS

Home | Current Version | Previous Version | Graphics & Text | Print | Product List | Glossary On
Versions: 1 2 3 4 5 6 7 8 9 10 11 12 13 14 15 16 17 18 19 20 21 22 23 24 25 26 27 28 29 30 31 32 33 34 35 36 37 38 39 40 41 42 43 44 45 46 47 48 49 50
000
ASUS43 KMKX 071621
RWRWI

WISCONSIN REGIONAL WEATHER ROUNDUP
NATIONAL WEATHER SERVICE MILWAUKEE/SULLIVAN WI
1000 AM CST WED DEC 07 2016

NOTE: "FAIR" INDICATES FEW OR NO CLOUDS BELOW 12,000 FEET WITH NO
SIGNIFICANT WEATHER AND/OR OBSTRUCTIONS TO VISIBILITY.

WIZ001-002-006>008-014>016-023>028-071700-
NORTHWEST WISCONSIN

CITY           SKY/WX    TMP DP  RH WIND       PRES   REMARKS
SUPERIOR ARPT  FLURRIES  19  11  70 W17G26    29.82R WCI   4
ASHLAND        LGT SNOW  19  12  74 SW18G37   29.79S WCI   4
HAYWARD        LGT SNOW  16   9  74 SW14G25   29.85R WCI   2
SIREN          FLURRIES  17   9  69 W20G28    29.92R WCI   1
CUMBERLAND     FLURRIES  18  10  73 W21G26    29.91R WCI   1
RICE LAKE      FLURRIES  18  11  74 W20       29.94R WCI   2
CHETEK         FLURRIES  18  12  75 MISG      29.94R
LADYSMITH      LGT SNOW  18  12  77 SW16G24   29.89R WCI   3
EAU CLAIRE     LGT SNOW  17  11  77 SW22G32   29.97R WCI   0
MENOMONIE      FLURRIES  19  12  74 SW18G26   29.98R WCI   4
NEW RICHMOND   LGT SNOW  19  11  72 W21       29.98R WCI   3
OSCEOLA        FLURRIES  19  11  69 W17G26    30.01R WCI   4
$$

WIZ003>005-009-010-017-018-071700-
NORTH CENTRAL WISCONSIN

CITY           SKY/WX    TMP DP  RH WIND       PRES   REMARKS
MANITOWISH WTR LGT SNOW  16  10  78 SW13G23   29.76R WCI   2
ARBOR VITAE    LGT SNOW  18  12  78 W16G28    29.78R WCI   3
WOODRUFF       LGT SNOW  18  12  78 W16G28    29.78R WCI   3
RHINELANDER    LGT SNOW  17  12  80 W16G25    29.79R WCI   2
EAGLE RIVER    LGT SNOW  17  10  74 W23G32    29.76R WCI  -1
LAND O LAKES   LGT SNOW  18  11  74 SW8G22    29.76R WCI   7
PHILLIPS       LGT SNOW  16  11  82 SW15G21   29.82R WCI   1
TOMAHAWK       LGT SNOW  16  10  78 SW8G16    29.84R WCI   5
MEDFORD        LGT SNOW  15   9  78 W18G28    29.87R WCI  -2
MERRILL        LGT SNOW  17  11  76 W16G25    29.87S WCI   2
$$

WIZ029-030-035-036-043>047-071700-
CENTRAL WISCONSIN

CITY           SKY/WX    TMP DP  RH WIND       PRES   REMARKS
WAUSAU         LGT SNOW  17  11  77 W16G24    29.89R WCI   2
MOSINEE        FLURRIES  18  12  79 W18G26    29.91S WCI   2
MARSHFIELD     FLURRIES  17  11  77 W16G26    29.91R WCI   2
STEVENS POINT  FLURRIES  17  11  77 SW16G22   29.94R WCI   1
WAUPACA        PTSUNNY   23  14  69 W17G26    29.96R WCI   9
WAUTOMA        CLOUDY    20  13  74 W16G26    29.99R WCI   6
WISC RAPIDS    CLOUDY    19  13  77 W13G21    29.97R WCI   6
CAMP DOUGLAS   FLURRIES  19  12  73 W21       30.01R WCI   3
$$

WIZ011>013-019>022-031-037>040-048>050-071700-
NORTHEAST WISCONSIN

CITY           SKY/WX    TMP DP  RH WIND       PRES   REMARKS
ANTIGO         FLURRIES  16  11  80 W22G30    29.84S WCI  -2
SHAWANO        CLOUDY    23  13  67 W16G24    29.92R WCI   9
OCONTO         CLOUDY    23  13  65 W16G30    29.89S WCI   9
STURGEON BAY   CLOUDY    23  16  74 W21G28    29.89R WCI   8
GREEN BAY      FLURRIES  24  15  68 W20G29    29.93R WCI  10
MANITOWOC      PTSUNNY   23  15  71 W18G26    29.94S WCI   9
APPLETON       PTSUNNY   21  12  68 W21G28    29.93R WCI   6
CLINTONVILLE   CLOUDY    21  14  73 W17G24    29.93R WCI   7
OSHKOSH        MOSUNNY   21  12  68 W17G23    29.97R WCI   7
$$

WIZ032>034-041-042-053>061-071700-
SOUTHWEST WISCONSIN

CITY           SKY/WX    TMP DP  RH WIND       PRES   REMARKS
LA CROSSE      CLOUDY    20  11  68 W16       30.08R WCI   6
SPARTA         FLURRIES  19  13  77 W12       30.05R WCI   7
VIROQUA        CLOUDY    16  10  78 W16G24    30.04R WCI   0
BOSCOBEL       MOSUNNY   20  10  65 W10       30.12R WCI   9
PRAIRIE DU CHI CLOUDY    19  10  67 W13G18    30.13R WCI   6
PLATTEVILLE    CLOUDY    19  13  80 W15       30.10R WCI   4
$$

WIZ056-057-062-063-064-067-068-071700-
SOUTH CENTRAL WISCONSIN

CITY           SKY/WX    TMP DP  RH WIND       PRES   REMARKS
REEDSBURG      PTSUNNY   18  11  74 W15G22    30.04R WCI   4
BARABOO/DELLS  CLOUDY    19  11  73 W16G28    30.02S WCI   4
LONE ROCK      PTSUNNY   20  11  68 W15       30.09R WCI   6
MINERAL POINT  CLOUDY    19  14  79 W15G22    30.06R WCI   5
MADISON        PTSUNNY   19  12  74 W12G17    30.04R WCI   7
MIDDLETON      NOT AVBL
WATERTOWN      CLOUDY    21  15  77 W12       30.03R WCI   9
MONROE         MOSUNNY   21  14  73 W20       30.06R WCI   6
JANESVILLE     PTSUNNY   25  16  68 SW13G18   30.07R WCI  13
$$

WIZ051-052-058>065-066-070>072-071700-
SOUTHEAST WISCONSIN

CITY           SKY/WX    TMP DP  RH WIND       PRES   REMARKS
MILWAUKEE      PTSUNNY   25  15  66 W15       30.02R WCI  13
WAUKESHA       SUNNY     21  16  79 SW14      30.02R WCI   8
MILWAUKEE/TIMM SUNNY     25  14  63 W15G23    30.02R WCI  12
RACINE         PTSUNNY   24  15  68 W13       30.05R WCI  12
BURLINGTON     MOSUNNY   24  17  75 W10G22    30.05R WCI  13
KENOSHA        MOSUNNY   24  17  74 W17G23    30.05R WCI  11
FOND DU LAC    PTSUNNY   22  12  65 W14G23    29.99R WCI   9
SHEBOYGAN      SUNNY     23  14  68 W22G31    29.96R WCI   8
WEST BEND      MOSUNNY   23  18  80 W13G21    29.99S WCI  11
JUNEAU         SUNNY     19  13  76 SW17      30.03R WCI   4
$$

LSZ147-162-071700-
LAKE SUPERIOR

STATION/POSITION TIME  TEMP    WIND        PRES    WAVE
                       AIR SEA DIR/SP/G            HT/PER
                 (UTC) (F)     (DEG/KT/KT) (MB)    (FT/S)
DEVILS ISLAND    1600   24     250/ 35/ 42 1007.2R
PORT WING        1604   21     240/ 14/ 26 1009.1S
SAXON HARBOR     1530   20     220/ 15/ 26 1008.8R
$$

LMZ867-665-643>646-071700-
LAKE MICHIGAN

STATION/POSITION TIME  TEMP    WIND        PRES    WAVE
                       AIR SEA DIR/SP/G            HT/PER
                 (UTC) (F)     (DEG/KT/KT) (MB)    (FT/S)
CHAMBERS ISLAND  1540   25     230/ 12/ 17 1010.5S
NORTHPORT PIER   1544   26     240/ 11/ 21 1010.8R
SISTER BAY       1538   27     280/ 25/ 30   N/A
ALGOMA LAKESHORE 1436          270/ 18/ 26   N/A
KEWAUNEE LAKESHO 1600   24     280/ 17/ 28 1012.7
SHEBOYGAN LAKESH 1600   23     250/ 18/ 22 1015.7R
PORT WASHINGTON  1553   25     280/ 12/ 25 1015.9S
MILWAUKEE LAKESH 1600   25     270/ 11/ 14   N/A
KENOSHA   LAKESH 1600   25     250/ 15/ 18 1017.9
$$

TC  - TEMPERATURE IN CELSIUS
VSB - VISIBILITY IN STATUTE MILES
WCI - WIND CHILL INDEX
HX  - HEAT INDEX





USA.gov is the U.S. government's official web portal to all federal, state and local government web resources and services.